This is the latest recevied weather packets stored in our database for station/object XE2B-20. If no packets are shown the sender has not sent any weather packets the latest 10 day(s).
| Time | Temp. | Humidity | Pressure | Rain* | Wind** | Luminosity | Snow |
|---|---|---|---|---|---|---|---|
| 1777583394 | 37.78° C | 11% | 800.8 hPa | - | - | - | - |
| 1777581896 | 38.33° C | 12% | 801.1 hPa | - | - | - | - |
| 1777580397 | 37.22° C | 12% | 801.5 hPa | - | - | - | - |
| 1777578898 | 37.22° C | 13% | 801.7 hPa | - | - | - | - |
| 1777577399 | 37.22° C | 12% | 802.2 hPa | - | - | - | - |
| 1777575901 | 37.78° C | 12% | 802.8 hPa | - | - | - | - |
| 1777574402 | 37.22° C | 12% | 803 hPa | - | - | - | - |
| 1777572903 | 37.22° C | 13% | 803.3 hPa | - | - | - | - |
| 1777571405 | 38.33° C | 11% | 803.7 hPa | - | - | - | - |
| 1777569906 | 37.22° C | 12% | 804 hPa | - | - | - | - |
| 1777568407 | 36.67° C | 12% | 804.4 hPa | - | - | - | - |
| 1777566914 | 33.89° C | 13% | 804.6 hPa | - | - | - | - |
| 1777562409 | 29.44° C | 15% | 804.6 hPa | - | - | - | - |
| 1777560910 | 27.22° C | 16% | 804.7 hPa | - | - | - | - |
| 1777559411 | 25.56° C | 17% | 804.7 hPa | - | - | - | - |
| 1777556414 | 23.33° C | 17% | 804.5 hPa | - | - | - | - |
| 1777554912 | 19.44° C | 19% | 804.1 hPa | - | - | - | - |
| 1777553412 | 17.78° C | 20% | 803.8 hPa | - | - | - | - |
| 1777551921 | 16.11° C | 21% | 803.5 hPa | - | - | - | - |
| 1777550414 | 15.56° C | 21% | 803.5 hPa | - | - | - | - |
| 1777548915 | 15.56° C | 21% | 803.4 hPa | - | - | - | - |
| 1777547416 | 16.67° C | 21% | 803.1 hPa | - | - | - | - |
| 1777545916 | 16.67° C | 21% | 803.2 hPa | - | - | - | - |
| 1777544419 | 18.33° C | 20% | 803.2 hPa | - | - | - | - |
| 1777542928 | 17.78° C | 20% | 803.2 hPa | - | - | - | - |
* Rain since midnight (hover to see other rain measurements)
** Current wind speed in m/s (hover to see current wind gust speed)